GFSGBSN_sfc_temp_000.txt.gz
Temp
61 61 61 61 61 61 61 61 60 60 60 59 59 59 59 61 61 61 60 59 59 58 57 57 58 58 65 73 81 94 80 78 85 88 89 89 85 84 79 82 82 78 79 81 82 81 81
60 60 60 60 60 61 61 60 60 59 59 59 58 58 58 59 60 60 59 58 57 56 56 57 57 57 69 70 95 97 97 97 97 94 93 92 88 89 84 82 80 82 81 80 81 80 80
60 60 60 60 60 59 59 59 59 58 59 59 58 58 58 59 59 59 59 58 56 56 56 57 57 67 76 79 96 98 97 95 96 95 90 93 93 87 86 79 85 82 75 78 78 79 77
60 60 60 59 60 59 58 58 58 58 58 59 59 58 57 57 58 58 57 56 56 56 56 56 56 70 75 94 96 95 97 94 97 97 94 94 94 88 84 86 81 75 76 68 77 79 79
60 60 60 59 59 58 58 58 58 57 58 59 59 58 57 57 57 57 56 56 56 56 56 56 63 73 76 84 88 94 95 90 93 93 93 93 91 84 82 74 70 72 65 68 70 80 78
60 60 60 59 59 59 58 59 57 57 58 59 60 59 58 57 57 56 56 56 57 56 59 71 79 75 84 81 88 90 95 92 88 87 85 84 83 77 76 72 59 63 67 70 69 74 75
60 60 60 59 59 59 59 59 57 57 57 59 60 60 58 57 57 56 56 67 72 73 81 79 80 80 83 89 91 89 91 89 87 83 74 80 73 66 69 72 72 72 70 69 72 75 71
59 59 59 59 59 58 58 58 57 57 57 58 59 60 59 58 57 56 61 77 80 84 72 83 83 83 86 90 80 85 92 81 79 72 78 74 66 72 75 74 72 71 68 68 72 74 71
59 59 59 59 58 57 57 58 57 57 57 58 58 59 59 58 56 59 77 81 89 86 74 77 82 81 81 87 78 79 84 83 77 74 74 66 69 74 72 71 68 70 66 64 64 71 74
59 58 58 58 57 57 57 57 57 57 57 57 57 58 58 56 60 83 81 87 87 84 66 68 75 79 83 84 74 86 86 80 77 72 73 69 73 70 70 68 67 63 68 66 65 63 58
59 58 58 58 57 56 56 56 56 56 57 57 57 59 56 54 68 81 82 87 86 80 47 71 74 87 84 76 78 78 87 81 72 71 71 66 68 68 66 65 68 64 68 66 66 63 63
59 59 58 57 57 56 56 56 55 55 56 57 58 60 56 67 73 83 85 84 80 57 46 65 75 74 73 76 76 79 79 83 80 74 73 69 75 71 68 70 70 71 67 67 66 63 50
58 59 58 57 57 56 56 55 55 55 56 58 59 58 64 81 76 83 82 78 58 50 70 64 67 72 71 68 72 74 71 69 66 60 61 68 67 71 72 66 71 70 64 50 46 47 46
58 58 57 57 57 56 56 55 54 54 56 59 60 58 69 83 85 81 78 67 50 64 65 74 71 71 66 69 68 70 69 64 69 67 65 59 52 66 71 65 62 64 62 48 39 41 48
57 58 57 57 57 56 55 54 54 54 56 59 58 76 79 78 81 80 72 53 56 65 72 68 70 64 63 67 68 67 65 63 64 67 59 58 56 68 68 69 68 62 55 63 51 47 43
57 57 57 56 56 55 54 53 53 54 56 60 77 77 78 80 81 75 64 55 66 74 75 73 62 66 61 64 64 65 63 66 64 67 71 62 54 65 67 69 69 65 67 52 53 38 37
57 57 57 56 55 54 51 53 53 54 55 59 73 71 74 81 78 71 59 63 68 75 74 70 67 64 66 63 66 63 62 65 68 67 70 65 60 58 65 61 59 61 59 59 58 50 40
56 56 56 56 55 53 52 53 53 53 54 63 74 64 76 79 66 68 65 69 62 70 74 71 72 69 66 65 63 62 60 62 68 68 60 62 58 48 58 65 67 64 60 59 44 44 45
55 56 56 56 55 51 52 52 53 53 53 74 70 69 77 76 58 57 68 68 72 69 70 69 66 69 70 65 57 63 61 65 66 64 58 61 55 46 52 58 64 59 62 60 55 46 41
55 55 56 53 52 50 52 52 53 53 53 69 74 59 69 71 73 67 65 64 63 72 69 71 68 70 66 63 66 60 58 62 65 63 53 58 59 50 45 52 59 54 58 61 57 43 43
54 55 54 52 50 50 51 52 53 53 53 69 74 66 71 56 63 69 70 68 64 61 70 71 66 67 64 56 61 59 62 60 63 55 61 61 49 53 55 58 59 57 57 58 55 54 44
54 54 53 53 50 50 51 53 52 52 51 71 69 68 71 69 70 68 59 66 66 67 66 65 65 67 67 56 61 58 63 62 60 62 61 60 46 43 43 57 57 51 56 57 57 58 57
54 53 53 53 52 52 54 53 52 52 55 76 76 76 73 58 67 64 62 66 67 67 66 72 70 66 57 63 66 66 66 66 65 60 55 47 44 43 40 47 44 38 47 56 58 60 57
53 52 53 55 55 55 54 53 52 52 53 72 74 77 62 56 63 64 67 70 68 66 63 70 71 61 65 70 66 63 62 62 63 61 60 40 41 41 37 38 34 54 63 62 57 59 61
53 52 54 55 55 54 53 53 52 52 53 74 74 73 65 41 63 66 67 68 68 68 65 63 66 70 72 66 51 45 43 41 46 59 58 54 46 36 35 38 45 51 56 54 50 50 60
52 53 54 54 54 54 53 52 52 52 53 71 68 68 72 55 60 71 68 67 59 58 57 58 67 71 69 55 45 37 43 48 45 49 56 52 44 43 36 32 32 49 60 62 59 42 57
52 53 53 54 54 54 53 52 52 52 52 63 68 68 69 63 70 70 65 62 67 62 58 59 58 57 66 46 36 43 46 55 44 38 36 37 39 37 37 34 40 56 61 61 39 42 53
52 52 53 53 54 55 53 52 52 52 52 60 68 70 67 66 65 70 71 68 68 66 54 61 57 57 52 38 40 45 39 47 47 52 42 39 37 34 38 34 32 59 58 44 51 54 52
51 51 52 52 53 53 54 52 52 52 52 54 71 71 71 68 63 69 68 69 68 69 67 63 62 59 57 50 45 47 38 37 41 40 60 46 48 45 46 44 58 60 57 58 53 51 51

GFSGBSN_sfc_temp_003.txt.gz
Temp
62 61 61 61 60 60 62 61 61 60 60 59 59 59 59 60 60 60 60 59 59 59 58 57 57 58 57 61 69 86 72 72 75 78 77 76 74 71 67 68 71 68 69 72 73 73 70
61 60 60 60 60 61 61 60 60 59 58 58 58 58 58 58 59 60 59 59 58 57 56 56 57 57 57 61 86 90 87 78 81 79 80 79 78 81 76 72 68 71 71 69 70 68 69
61 60 60 60 60 60 60 59 59 58 58 58 58 58 58 58 59 58 59 58 57 56 56 56 57 59 65 69 84 83 88 83 83 83 80 81 81 75 73 69 75 73 65 67 68 69 68
60 60 60 60 59 60 59 59 58 58 58 58 58 58 57 57 58 58 58 57 56 56 55 56 56 58 63 86 80 86 85 85 88 88 84 83 83 76 72 72 72 65 62 55 65 69 70
60 60 60 60 59 59 59 58 58 58 57 57 58 58 57 56 56 57 56 56 55 55 55 56 53 58 65 80 80 84 83 82 84 85 81 89 79 70 72 61 56 58 51 56 62 70 67
60 60 60 60 59 59 59 58 58 57 57 57 58 58 58 57 56 55 55 56 57 55 56 62 67 62 73 75 81 82 82 84 79 78 76 72 68 61 60 56 49 52 56 56 56 62 64
60 60 60 60 59 59 58 58 58 57 57 57 58 59 58 57 56 55 54 53 58 59 60 65 69 70 77 80 82 79 83 80 78 72 62 68 58 52 56 61 64 62 59 57 57 67 61
59 59 59 59 59 58 58 58 57 57 57 58 59 58 58 57 56 56 53 59 67 68 60 74 78 76 81 81 74 78 82 70 69 62 66 61 54 63 68 66 63 63 59 55 61 67 61
59 58 59 59 58 57 57 58 56 56 57 57 58 59 58 57 56 53 56 67 76 71 60 70 76 76 76 79 71 72 76 72 68 64 61 56 61 70 67 62 60 59 56 55 56 62 61
58 58 58 58 58 57 57 57 56 56 56 57 57 58 56 54 56 62 63 74 74 68 51 63 69 73 78 77 68 78 77 72 68 61 63 61 67 66 63 61 60 54 62 61 59 54 46
58 58 58 57 57 56 56 56 55 55 56 57 57 58 55 57 58 65 71 74 72 66 32 66 69 81 77 70 71 71 77 73 63 64 63 58 60 60 59 60 63 57 61 59 57 52 49
58 59 58 57 56 56 56 55 54 55 55 57 58 58 55 58 56 68 71 70 66 44 35 61 70 68 67 70 70 73 71 73 71 66 64 61 66 62 61 66 64 65 60 58 56 51 36
57 58 57 57 56 56 56 54 54 54 55 57 57 57 57 70 63 70 67 63 44 35 64 59 62 67 65 63 66 67 64 60 55 50 51 60 60 63 66 58 62 59 51 35 35 31 33
57 57 57 57 56 56 55 54 53 54 55 57 58 58 63 71 69 68 64 54 36 58 59 68 65 65 60 64 63 64 60 54 60 58 53 49 43 58 64 59 53 54 52 35 31 27 37
57 57 56 56 56 55 54 53 53 54 55 57 58 62 64 66 70 66 58 39 44 56 67 63 64 58 58 63 60 60 55 54 57 58 51 48 49 61 63 63 60 55 44 54 41 35 32
57 56 56 56 56 54 52 52 53 54 55 56 60 61 63 68 69 63 50 46 58 68 69 66 56 60 53 58 57 57 55 59 58 61 61 56 46 59 62 62 62 57 60 42 39 30 29
56 56 56 56 55 53 50 52 52 53 54 58 59 57 63 69 66 56 42 50 63 69 68 63 60 58 60 57 59 56 55 59 61 61 60 55 50 50 58 53 51 53 51 51 49 38 28
55 55 56 56 54 51 52 52 52 52 54 58 58 51 65 65 52 51 50 62 60 64 68 65 63 63 59 59 56 55 52 56 62 60 53 54 47 34 50 58 61 56 52 51 32 35 32
55 55 55 55 53 50 52 52 52 52 54 59 56 56 65 63 41 40 59 63 66 64 64 63 61 63 63 56 50 54 54 59 59 56 50 52 43 32 43 51 56 52 56 53 46 35 34
54 54 55 52 50 49 51 52 52 52 53 59 57 46 55 56 57 56 59 57 58 65 64 66 63 62 59 56 58 51 52 58 58 56 51 53 51 40 33 43 49 45 52 53 46 31 34
54 54 54 51 49 49 50 52 52 52 53 63 60 52 55 40 48 55 58 60 57 55 63 64 59 60 57 48 52 49 53 54 56 54 55 52 39 43 47 50 52 51 50 51 48 45 35
54 54 53 53 49 49 53 52 52 52 50 59 57 55 57 54 58 55 51 57 58 61 60 59 57 60 58 49 52 48 54 53 51 55 52 49 35 34 35 49 48 43 47 48 49 51 49
54 53 53 53 51 54 53 52 52 52 52 58 61 61 58 49 53 49 48 58 60 59 59 63 59 53 47 53 54 55 56 56 55 52 44 38 32 32 31 39 36 31 40 48 51 51 49
53 53 53 54 54 54 53 52 52 52 51 59 59 59 49 41 45 51 61 61 58 60 55 60 59 51 57 60 56 53 51 53 55 52 50 34 34 31 26 30 23 46 55 54 50 51 52
52 53 54 54 54 54 53 52 52 52 53 58 59 59 49 37 48 56 59 59 56 56 54 56 59 60 60 55 39 38 34 37 40 52 49 46 33 26 27 25 36 45 51 47 43 42 50
52 53 54 54 54 53 52 52 52 52 52 60 57 58 55 45 46 63 58 56 44 45 45 51 59 60 57 37 33 30 29 37 35 44 46 44 35 31 25 22 19 38 52 56 53 32 48
52 52 53 54 54 53 52 52 52 52 52 56 57 60 58 49 56 58 52 50 55 49 43 49 49 49 52 36 33 32 32 45 35 33 29 28 28 25 28 20 31 46 54 55 32 35 46
52 52 53 54 55 54 52 52 52 52 52 56 58 61 59 52 54 59 60 56 56 51 41 49 46 44 36 34 33 33 30 34 35 41 35 32 28 31 30 26 24 53 51 40 42 45 45
51 51 52 53 54 53 52 52 52 52 52 53 59 62 62 56 54 59 59 59 60 59 53 51 49 49 44 37 36 37 33 34 31 29 48 35 38 33 36 34 46 52 49 48 48 45 45

GFSGBSN_sfc_temp_006.txt.gz
Temp
62 62 61 60 60 60 61 61 61 60 59 59 59 59 59 59 60 60 60 59 59 58 58 57 58 58 55 58 65 81 71 69 72 75 72 72 70 69 64 65 67 62 64 68 69 69 66
61 60 60 60 60 60 61 61 60 59 59 58 58 58 58 58 59 59 59 58 58 58 57 57 57 57 54 57 79 82 79 75 76 74 75 73 73 74 69 66 64 66 67 66 67 65 66
61 60 60 59 59 59 60 59 59 59 58 58 58 58 58 58 58 58 59 58 57 57 56 56 57 57 58 64 78 77 81 78 77 76 74 78 76 71 68 67 69 67 61 62 61 63 62
60 60 60 59 59 58 59 59 59 58 57 57 57 58 57 57 58 58 58 57 57 56 56 56 56 55 60 80 77 81 79 81 83 83 80 78 78 73 69 68 68 63 58 52 61 64 65
60 60 60 59 59 59 59 58 58 58 57 57 57 57 57 56 56 57 57 56 55 55 56 56 52 54 62 79 77 83 79 78 80 82 79 85 76 67 67 57 53 54 48 51 57 65 62
60 60 59 59 59 59 59 58 58 57 56 56 57 57 57 56 56 55 55 55 57 56 55 60 63 57 69 71 77 78 79 79 74 75 73 72 63 58 56 53 45 49 51 47 54 58 60
60 60 59 59 59 59 58 58 58 57 56 57 57 57 57 56 56 55 54 51 55 56 58 63 65 65 71 75 77 75 78 77 73 70 59 64 57 51 54 57 60 60 54 52 53 62 60
59 59 59 59 59 58 58 57 57 56 56 57 57 57 57 56 56 55 52 58 63 65 58 68 69 70 76 75 69 73 77 67 65 59 61 57 51 60 64 63 60 58 55 53 58 64 59
58 58 58 59 59 58 57 57 56 56 56 56 56 57 57 56 55 53 55 62 70 67 57 67 72 72 72 75 67 67 71 67 63 59 57 53 59 65 63 58 57 54 53 51 53 56 58
57 57 57 58 58 57 57 57 56 56 56 56 56 57 56 55 55 57 59 70 68 66 48 59 66 70 75 73 65 73 74 68 65 58 59 58 64 62 58 57 55 49 57 57 55 50 45
57 57 57 57 57 56 56 55 55 55 55 56 56 56 54 55 56 60 69 69 66 64 30 62 65 77 73 67 68 67 73 69 59 61 59 54 57 57 55 56 58 54 58 55 54 48 45
57 57 57 57 56 56 55 55 54 54 55 55 56 56 54 55 54 63 66 63 63 42 34 58 66 64 62 65 65 68 67 70 67 62 60 58 61 59 56 61 60 60 55 54 51 47 35
56 56 56 56 56 56 55 54 54 54 55 55 56 56 55 66 62 66 63 59 42 34 59 56 58 63 61 59 61 63 59 55 51 48 48 56 56 60 62 56 59 56 47 34 34 30 32
56 56 56 56 56 56 55 54 53 54 54 55 56 54 57 66 65 64 60 51 35 53 55 62 61 60 57 60 58 59 56 50 56 54 49 45 41 55 61 55 51 52 48 34 31 27 35
56 56 55 56 56 55 54 53 53 53 54 55 56 56 60 63 66 62 55 36 43 52 62 60 60 54 54 59 58 56 51 51 53 53 48 45 46 57 58 59 56 52 43 51 38 32 31
56 55 55 55 55 54 50 52 53 54 55 56 58 58 59 64 63 58 47 43 53 61 63 62 52 56 50 55 54 53 51 55 54 57 56 51 44 55 59 60 59 54 56 41 36 29 27
55 55 55 55 54 52 52 52 52 53 55 55 57 55 61 64 61 52 40 46 58 64 64 60 56 55 56 53 55 51 51 55 57 57 56 51 48 48 54 50 48 50 47 46 44 34 28
54 54 54 55 53 52 52 52 52 53 54 57 54 48 61 62 50 45 46 57 59 61 64 62 60 58 56 55 51 49 49 52 57 55 50 51 44 32 46 55 57 53 49 46 31 35 29
54 54 54 54 50 51 52 52 52 52 54 56 52 52 61 59 39 34 53 60 61 59 59 59 57 59 58 53 46 50 51 54 56 53 48 50 40 31 40 48 52 50 51 49 42 33 33
54 54 54 52 49 49 52 52 52 52 54 56 53 44 51 52 50 51 51 54 55 61 60 61 59 60 56 52 53 48 49 54 55 54 50 51 45 39 33 40 45 41 47 47 43 29 33
53 53 52 49 49 49 51 52 52 52 53 58 54 48 52 38 44 51 54 56 54 53 59 61 57 57 54 45 48 46 50 51 54 53 52 48 38 41 44 46 46 45 45 45 44 42 35
53 53 52 49 49 51 52 52 52 52 53 57 54 51 51 48 54 52 49 53 55 56 57 55 53 55 54 46 50 46 50 49 48 51 48 45 35 33 35 44 43 40 44 44 45 47 45
53 52 52 50 50 54 52 52 52 52 54 59 60 56 55 45 48 46 45 55 55 57 56 59 54 49 46 50 51 51 52 52 52 49 40 37 31 30 30 35 34 31 40 45 46 46 46
52 52 53 53 53 54 52 51 51 52 55 61 58 55 48 39 42 48 56 57 56 55 52 55 55 49 55 57 53 52 50 50 50 47 46 34 33 28 25 27 21 43 50 50 44 45 45
52 52 53 53 53 52 52 51 51 51 52 57 55 56 48 35 43 53 54 52 53 52 50 52 54 56 56 50 37 38 34 37 38 46 44 42 29 26 23 24 34 43 48 46 42 39 46
52 52 53 52 52 52 51 51 51 52 52 56 54 55 52 44 44 57 51 53 42 42 44 48 56 56 50 33 32 28 28 35 33 40 43 40 32 30 27 21 20 37 48 52 50 33 46
52 52 52 52 52 52 52 51 51 52 52 57 55 57 55 47 52 54 49 49 50 45 41 45 46 47 47 28 28 30 31 42 33 30 28 27 25 24 24 17 29 43 49 51 33 36 44
51 52 52 53 52 51 51 51 51 51 52 57 56 57 57 49 51 55 55 53 51 47 41 48 45 42 35 31 27 32 30 33 32 38 34 31 27 24 23 19 25 48 49 39 42 42 44
52 52 52 52 52 51 51 51 50 51 51 54 56 58 58 53 53 56 57 56 57 57 50 48 48 45 41 36 35 37 32 33 28 29 43 36 36 32 36 34 45 48 48 47 46 43 43

GFSGBSN_sfc_temp_009.txt.gz
Temp
63 62 61 61 60 60 60 61 61 60 59 59 59 59 59 59 59 59 59 59 58 59 58 58 57 57 53 55 62 77 68 68 71 72 69 69 66 65 63 62 60 59 60 63 65 67 65
62 61 61 60 60 60 60 61 60 59 59 58 58 58 58 58 58 58 58 59 58 58 58 57 57 57 52 56 76 77 72 72 73 70 68 70 69 70 64 64 62 65 61 61 62 64 64
61 61 60 59 59 59 59 59 59 59 58 58 58 57 58 58 58 58 59 58 58 57 56 56 56 57 58 64 73 72 76 73 73 72 69 73 74 69 66 60 67 65 58 59 59 59 59
61 60 60 59 58 58 58 59 59 58 58 58 57 57 57 57 58 58 58 57 57 57 56 56 56 54 59 76 73 76 74 77 78 76 76 78 75 71 66 66 63 58 55 50 59 60 59
61 60 60 59 58 58 58 58 58 58 58 57 57 57 56 56 56 57 57 56 56 56 56 56 50 52 61 77 75 80 78 76 76 77 75 81 74 63 64 56 51 51 45 48 54 62 58
60 60 59 59 58 58 58 58 58 58 57 56 57 56 57 56 55 56 55 55 56 55 55 58 59 55 66 68 74 75 77 76 72 71 71 69 61 57 54 52 44 46 48 42 51 56 56
60 60 59 59 59 59 59 58 58 57 57 56 56 57 57 56 55 55 53 51 52 53 53 60 62 63 67 74 75 73 74 75 71 66 57 60 56 49 51 53 56 54 50 50 49 58 52
59 59 59 59 59 59 59 58 57 56 56 56 56 57 57 56 55 55 50 55 62 63 55 64 65 66 70 71 65 70 74 66 64 56 58 56 50 56 60 58 57 55 51 48 54 58 54
58 58 58 59 59 59 58 58 57 56 56 56 56 57 57 56 55 52 53 61 66 65 54 63 66 67 70 72 64 64 69 64 60 56 56 51 55 62 59 55 55 51 48 49 51 53 53
57 57 57 58 58 58 58 57 57 56 56 56 56 56 55 54 52 55 57 65 65 64 46 56 62 68 71 69 63 70 70 66 61 54 56 56 59 58 56 54 53 48 54 54 53 47 41
57 57 57 57 57 56 56 56 56 56 55 56 56 56 54 56 55 57 66 65 64 62 29 58 62 74 69 65 64 66 71 66 58 57 56 52 53 54 54 53 55 52 55 52 51 45 43
57 57 56 56 56 56 55 55 55 54 55 55 56 55 52 54 51 60 63 60 62 41 33 54 62 60 61 62 62 64 65 67 64 58 57 55 58 56 54 57 56 58 53 50 47 44 33
56 56 56 56 56 55 55 55 54 54 54 55 56 55 55 62 60 63 60 58 40 32 56 53 55 59 57 56 59 58 55 53 50 46 45 53 53 56 58 53 55 53 46 33 33 29 31
56 56 56 56 56 55 55 55 54 54 54 55 55 54 54 59 61 61 59 50 34 50 52 58 58 56 54 56 55 55 52 49 53 51 46 43 39 52 58 52 48 48 46 34 31 26 34
56 56 56 55 55 55 55 54 53 53 54 54 54 53 57 60 62 59 53 35 41 49 57 57 56 51 51 56 55 53 48 48 51 51 46 43 44 55 55 56 54 48 41 47 35 31 31
56 56 55 55 54 54 53 53 53 54 54 55 56 56 57 61 60 57 46 42 50 57 59 58 50 53 48 52 51 49 48 52 51 53 53 50 42 51 56 56 55 52 53 40 34 28 25
56 56 55 54 54 53 50 52 53 54 54 55 56 53 59 60 59 51 39 44 54 62 61 57 54 51 52 50 51 47 47 51 53 54 54 49 46 45 52 48 45 48 45 42 41 32 27
55 54 54 54 54 52 53 53 53 53 54 56 52 47 59 59 49 42 45 53 56 58 62 59 57 55 52 51 48 47 47 49 53 52 48 48 42 32 44 52 53 49 45 43 30 33 28
54 54 54 54 51 52 52 52 52 53 55 55 50 50 59 58 38 32 49 55 57 57 57 56 55 55 54 49 45 47 48 52 53 51 47 48 39 31 39 46 50 46 48 44 39 32 32
54 54 54 52 50 51 52 52 52 53 54 56 50 43 49 50 47 49 49 51 52 58 57 58 56 56 53 49 49 45 47 51 52 52 50 50 42 38 33 38 42 40 44 44 41 29 32
53 53 52 50 49 49 50 52 52 53 53 57 50 46 50 38 42 48 52 52 51 50 57 58 55 55 51 43 44 43 47 49 52 51 49 47 38 39 40 42 43 42 43 43 41 40 35
53 51 49 49 49 49 53 52 52 52 53 55 51 48 48 45 51 49 46 51 53 53 54 52 52 51 51 45 49 44 48 46 46 49 44 43 34 32 34 41 40 38 43 42 42 42 41
52 51 49 49 50 53 52 52 52 52 55 54 53 53 52 41 44 45 43 52 54 54 53 55 53 49 44 47 49 49 49 49 49 47 38 35 30 30 29 33 34 30 38 43 43 44 42
52 52 50 51 53 53 52 51 51 53 54 58 54 53 45 36 40 46 53 53 53 53 51 52 53 48 52 53 51 51 47 47 47 44 44 33 29 26 24 26 22 41 46 47 44 42 42
52 52 53 53 52 52 51 51 51 52 53 60 56 53 47 35 43 49 51 50 50 50 48 49 51 52 54 47 38 38 33 37 37 43 41 40 29 27 23 23 33 42 45 42 41 40 44
52 52 52 52 52 51 51 51 51 51 53 59 54 52 50 45 43 54 49 50 41 41 42 46 53 52 48 32 32 29 29 35 32 37 41 38 31 29 25 20 21 37 45 49 47 33 44
51 52 52 52 51 51 51 50 50 51 54 58 54 55 54 45 50 52 47 48 48 44 40 44 46 45 46 28 24 28 30 39 32 29 27 27 23 22 19 17 29 41 48 49 34 36 43
51 51 51 51 51 50 50 50 50 51 52 58 54 55 55 47 49 52 54 50 49 47 41 46 44 42 34 31 27 27 27 32 32 36 34 31 27 22 25 19 27 46 46 39 43 41 45
51 51 51 50 50 51 49 49 49 50 51 55 55 56 55 52 51 54 54 54 54 55 48 45 47 44 40 34 30 32 31 32 28 29 40 33 36 32 35 34 44 46 46 46 46 44 43

GFSGBSN_sfc_temp_012.txt.gz
Temp
63 63 63 61 61 61 61 60 60 60 59 59 59 59 59 59 59 59 58 58 59 59 59 58 58 57 52 52 59 69 67 67 68 69 68 66 62 62 60 59 61 59 62 63 64 65 63
62 62 63 61 60 60 60 60 59 59 59 59 58 58 58 58 58 58 59 58 59 58 58 57 57 57 49 52 72 72 68 68 69 68 66 67 66 67 62 61 61 63 59 62 62 61 59
62 62 62 60 59 59 59 59 58 59 59 59 58 58 57 58 58 58 58 59 58 57 57 57 56 55 52 60 73 71 73 69 69 70 67 68 70 66 62 59 65 62 58 58 59 56 57
62 61 61 59 59 58 58 58 58 59 58 58 58 57 57 56 57 57 58 58 57 57 57 56 57 53 54 73 72 73 69 71 72 72 71 73 71 67 64 63 60 57 53 49 55 57 57
61 61 61 60 58 58 58 58 57 59 58 58 57 57 56 56 57 57 57 56 57 56 56 56 51 50 58 74 72 76 74 72 74 71 71 77 70 63 63 55 50 51 43 47 51 57 56
61 61 60 59 59 58 58 58 57 58 57 57 57 57 56 55 55 56 56 56 55 55 55 57 57 52 64 66 71 74 75 74 70 69 68 66 61 57 54 53 43 45 45 41 47 50 51
61 61 60 59 59 59 59 59 58 57 57 57 57 56 56 56 55 55 53 51 49 49 50 57 58 59 64 71 71 68 73 72 68 66 57 59 54 48 50 53 55 53 49 46 45 52 48
60 60 60 59 59 59 59 59 58 57 56 56 56 56 56 56 55 55 52 50 60 62 54 60 62 63 67 68 62 66 70 63 62 56 57 55 49 54 57 56 54 53 48 46 49 53 49
59 59 59 59 59 59 59 59 57 56 56 55 55 56 56 55 55 53 49 58 65 62 53 61 63 64 67 70 62 63 66 62 58 55 54 50 52 58 55 53 53 49 48 46 47 50 49
58 58 58 58 58 58 58 58 57 56 56 55 55 56 55 54 51 52 53 63 63 61 45 55 60 66 68 66 61 67 67 64 58 52 54 52 56 55 53 52 51 45 52 51 48 45 39
58 57 57 57 57 57 57 56 56 56 55 55 55 55 54 56 52 55 63 63 61 60 29 55 60 72 66 63 63 62 66 64 55 54 54 49 51 52 52 50 53 49 54 51 48 44 42
57 57 57 57 57 56 56 55 55 55 55 55 55 55 54 52 50 58 61 59 60 40 32 52 59 58 58 60 59 61 63 65 61 55 55 51 55 54 51 55 54 55 51 48 44 42 33
57 57 56 56 56 56 56 55 55 55 54 55 55 54 53 59 58 60 58 56 40 32 53 50 52 56 55 53 55 55 53 51 49 45 43 51 51 54 55 50 53 50 44 32 32 28 30
56 56 56 56 56 55 55 55 54 54 54 54 54 53 53 57 58 58 57 49 35 47 49 55 54 54 52 53 52 52 50 47 51 49 44 42 38 50 55 50 47 45 45 33 29 25 32
57 56 56 55 55 55 55 55 54 53 53 54 53 51 53 58 57 56 52 33 39 46 54 53 54 49 48 52 52 50 46 46 47 48 45 41 42 52 53 53 52 45 39 45 34 30 30
56 56 55 55 55 55 54 54 53 53 54 54 52 53 55 58 57 55 44 41 48 54 55 55 47 50 45 48 48 47 45 49 49 50 51 48 41 48 53 54 53 48 50 38 33 27 25
56 56 55 55 54 54 54 53 53 53 54 54 54 52 57 57 57 50 38 43 51 58 58 54 51 49 49 48 48 45 45 49 50 51 52 47 45 44 49 46 43 46 43 40 39 31 25
55 55 55 54 54 54 52 51 53 53 53 53 50 46 57 56 48 40 44 50 54 56 57 56 55 53 50 48 46 45 46 48 50 50 47 46 41 32 42 49 50 47 43 41 30 32 27
55 54 54 54 54 53 51 52 53 53 55 54 49 49 56 56 37 31 46 52 55 54 54 54 52 53 52 47 43 45 46 50 50 48 47 48 38 31 38 44 47 43 44 41 37 32 31
54 54 54 54 53 52 52 52 52 53 54 54 50 43 48 48 45 47 47 49 50 55 54 55 53 54 49 46 47 44 45 49 50 49 48 49 40 37 33 37 40 39 42 42 40 28 31
54 53 53 53 51 51 52 52 52 52 53 54 48 45 48 37 41 46 50 50 48 48 54 55 52 52 49 42 42 41 45 46 50 48 46 45 37 37 37 39 40 40 41 41 40 38 35
53 53 52 51 50 49 50 52 52 52 53 53 49 46 45 43 47 48 44 50 50 50 51 50 50 49 49 44 47 43 46 45 45 46 42 41 33 33 34 38 38 37 41 41 39 40 39
53 51 50 50 49 49 51 52 52 52 55 51 49 50 50 39 41 43 41 50 52 52 50 52 52 47 43 46 47 46 46 45 46 45 37 34 30 31 29 32 32 30 38 40 40 41 41
51 49 49 49 49 52 52 51 51 52 54 55 52 51 44 34 37 43 50 52 51 51 50 49 51 47 48 51 50 49 46 45 45 42 42 30 28 25 24 25 21 40 43 43 42 42 43
50 49 49 51 52 52 51 51 51 52 52 55 52 53 46 31 40 46 49 48 48 48 46 47 49 49 52 46 37 38 34 37 36 40 38 37 28 25 23 22 33 41 42 41 40 41 43
51 52 52 52 51 50 50 50 51 52 53 55 53 51 50 41 41 52 48 48 39 40 39 44 50 50 46 32 32 29 30 35 33 36 39 36 30 28 20 20 21 38 43 46 46 33 43
51 52 52 51 51 50 50 50 50 52 54 58 52 53 52 45 48 51 46 46 46 42 38 43 45 44 44 27 24 26 30 37 32 29 26 27 25 21 19 16 29 40 45 47 34 37 41
51 51 51 51 50 50 50 49 50 52 53 59 54 53 53 46 48 51 52 48 47 45 40 45 43 41 33 32 27 27 23 31 31 35 33 31 26 21 22 17 26 44 45 39 43 40 43
50 50 51 50 49 47 48 48 49 51 53 58 56 55 53 51 49 52 53 52 52 54 46 43 47 44 41 33 26 30 30 31 27 28 38 32 35 30 33 33 43 45 43 46 45 44 43

GFSGBSN_sfc_temp_015.txt.gz
Temp
63 63 62 62 62 61 61 61 60 59 60 60 59 59 59 59 59 59 59 58 59 59 59 59 58 58 54 54 61 73 67 67 69 71 72 70 67 67 63 65 66 63 67 67 69 70 71
62 62 62 62 62 62 61 60 59 58 58 59 58 58 58 58 58 58 58 58 58 58 58 57 57 57 51 55 76 73 68 69 71 72 70 71 70 71 68 66 66 68 68 67 67 67 68
62 62 61 61 61 61 60 59 59 58 58 59 59 58 58 58 58 58 58 58 58 57 57 57 57 56 51 61 77 72 73 72 72 74 69 71 74 71 69 66 69 67 65 66 66 68 67
62 62 61 60 60 59 58 58 58 58 58 59 58 58 57 57 57 57 58 58 57 57 57 57 57 54 55 73 74 72 73 74 73 75 75 75 74 71 69 70 66 64 62 59 66 67 65
62 62 61 60 59 59 58 58 58 58 58 58 58 57 57 56 56 57 57 56 56 57 56 56 52 52 58 75 74 78 77 76 71 72 74 76 74 67 68 63 59 59 56 56 61 63 65
62 61 61 60 59 59 58 58 57 57 57 58 57 57 57 57 56 57 56 56 56 56 55 58 56 53 65 70 74 76 79 77 72 69 69 69 66 63 62 61 53 55 55 57 58 60 60
61 61 61 60 59 59 59 59 58 57 57 57 57 57 56 56 56 55 53 53 52 52 50 59 60 60 66 73 74 76 78 76 74 69 62 64 61 58 61 61 60 59 57 56 56 56 55
59 60 60 60 60 59 59 59 58 57 57 57 57 56 56 56 55 55 54 51 61 66 57 59 61 62 67 70 67 73 78 69 67 61 63 62 56 61 62 61 59 58 55 51 55 56 55
57 59 60 60 60 59 59 59 58 57 57 56 56 56 56 55 55 53 52 53 65 67 57 61 62 64 69 70 66 69 73 69 64 61 59 57 60 62 60 58 57 55 55 53 53 55 56
57 57 59 59 59 59 58 58 58 57 56 55 55 55 54 54 51 52 52 62 61 63 49 56 63 68 70 69 64 72 73 69 63 57 58 58 61 59 58 56 58 53 58 55 52 53 50
57 56 57 58 58 57 57 57 57 57 56 55 55 55 54 56 53 55 64 65 62 62 35 58 64 75 69 66 66 67 70 69 59 58 60 56 57 57 56 56 59 55 58 57 54 52 52
57 56 57 58 57 56 56 56 56 56 55 55 55 55 54 54 52 57 62 63 61 44 35 55 63 62 62 63 62 65 67 68 65 59 59 57 62 61 60 58 59 58 56 54 52 51 45
56 56 56 57 57 56 56 56 55 55 55 55 54 55 54 57 57 61 60 58 44 37 55 53 56 60 58 57 58 59 57 55 56 51 49 56 56 60 60 58 59 58 53 44 42 41 41
55 55 55 56 56 56 56 55 55 54 54 54 54 54 54 55 58 57 58 52 40 48 50 58 57 57 55 57 56 55 55 52 56 54 50 49 47 57 60 58 55 53 53 43 35 36 42
55 55 54 56 56 55 55 55 55 54 54 54 53 52 52 57 58 56 54 37 42 47 56 55 57 53 53 56 55 54 51 52 53 55 51 48 48 59 58 60 60 52 49 52 40 37 39
55 55 54 56 55 55 55 55 54 54 53 53 51 50 55 60 58 56 47 43 51 55 58 57 50 53 49 53 52 52 52 54 54 56 57 53 47 54 58 60 58 56 55 46 44 35 33
55 54 54 55 55 55 55 54 54 53 53 54 53 52 57 58 57 53 42 46 53 58 59 57 53 52 52 51 52 50 50 54 55 56 58 54 51 50 55 53 52 52 49 45 46 40 37
53 53 53 54 55 55 54 54 53 53 53 52 50 47 57 56 49 44 46 51 53 57 60 59 58 55 53 52 50 50 50 53 54 56 54 53 47 43 49 55 56 55 51 49 42 38 35
53 52 52 54 54 54 54 53 52 53 55 52 49 51 57 56 41 37 49 54 57 56 57 57 55 56 55 50 47 49 50 53 54 55 51 52 46 40 46 51 54 52 50 46 43 40 36
52 52 52 54 54 54 53 51 52 53 54 54 51 45 51 49 48 49 50 51 53 57 57 57 55 55 52 50 50 47 49 53 53 52 48 51 45 44 41 45 48 46 47 47 47 40 39
51 51 52 54 54 53 51 52 52 53 53 52 49 47 50 40 43 48 52 52 52 51 57 58 55 54 51 46 47 45 50 51 52 50 49 51 44 44 43 44 46 47 47 46 46 46 43
51 52 53 53 53 52 52 52 52 52 53 51 48 47 46 45 48 49 46 51 52 53 53 53 53 53 53 47 51 46 49 49 49 49 47 46 40 40 40 42 42 43 46 46 46 45 46
51 52 52 52 51 51 51 52 51 52 55 52 51 52 52 39 44 45 44 49 53 54 51 54 54 51 48 51 51 49 49 48 50 48 42 41 36 38 36 37 38 37 42 46 46 47 49
52 52 51 51 50 50 50 51 51 52 54 55 53 51 46 36 41 45 49 53 53 53 51 52 53 51 51 54 52 53 49 47 48 44 45 35 35 33 35 31 32 48 49 49 47 48 50
51 51 51 50 49 50 51 51 51 52 54 55 53 53 47 34 42 47 49 48 49 49 48 49 50 51 53 50 43 42 39 40 39 42 42 42 36 30 34 33 39 48 46 45 44 49 52
49 49 49 49 51 51 51 51 51 52 54 55 53 53 50 42 42 52 48 49 43 43 44 46 51 53 49 38 38 36 36 40 40 40 42 40 36 38 30 33 31 44 49 51 52 41 52
49 50 51 51 50 50 50 50 50 51 53 55 54 54 53 46 50 52 49 48 48 46 43 46 48 47 49 36 34 36 38 41 39 34 31 33 31 33 26 33 37 46 50 52 41 45 48
51 51 51 50 50 50 50 50 51 52 54 56 53 55 55 48 50 53 54 49 48 49 44 47 47 45 39 37 36 36 35 38 38 40 36 37 33 31 27 29 33 48 50 44 50 49 49
50 50 49 49 48 48 49 49 51 53 54 55 54 55 55 52 51 54 55 55 55 56 49 46 50 46 46 39 35 33 33 33 33 37 41 38 41 39 39 40 48 50 50 52 51 50 51

GFSGBSN_sfc_temp_018.txt.gz
Temp
63 63 63 62 62 62 62 61 60 59 59 59 59 59 59 59 59 59 58 58 58 59 59 59 58 58 62 65 73 82 67 68 79 83 82 80 77 76 72 75 75 72 75 77 78 76 81
62 62 62 62 62 61 62 62 60 59 59 58 59 58 59 58 58 58 58 58 58 58 58 58 58 57 61 64 86 85 81 79 82 82 81 82 79 80 76 73 74 76 75 75 75 78 77
61 62 62 61 61 61 62 61 60 59 58 58 58 58 58 58 58 58 57 57 57 57 58 57 57 60 60 72 87 86 83 84 84 85 81 84 83 78 77 73 76 75 70 73 73 77 75
61 62 62 60 60 60 60 59 59 59 58 58 58 58 57 57 57 57 57 57 57 57 57 57 57 58 65 83 88 82 86 82 84 85 84 84 83 78 75 77 74 71 72 67 72 76 73
61 61 62 61 60 60 59 59 58 58 58 58 58 58 57 56 56 56 56 56 56 57 57 57 58 58 69 79 79 88 87 82 80 80 81 81 80 74 73 69 67 68 64 65 66 73 73
61 61 61 61 60 60 59 58 58 58 58 57 58 57 57 56 56 55 56 56 56 56 58 62 64 59 74 76 83 85 85 83 80 76 73 73 75 71 72 70 59 63 64 68 66 68 74
60 60 61 60 60 60 60 59 58 57 57 57 58 57 57 56 56 55 57 62 60 58 59 69 71 70 75 83 84 83 87 81 81 75 70 71 68 65 70 72 70 70 67 66 67 66 68
59 60 60 60 60 60 60 60 58 57 57 57 57 57 56 56 56 55 60 63 70 71 66 71 70 70 76 78 74 81 87 77 75 70 73 67 64 69 70 70 69 69 66 64 63 65 67
58 58 59 60 60 60 60 60 58 57 57 57 57 56 56 55 55 55 60 66 76 76 65 69 71 73 76 78 75 78 83 78 72 68 68 67 67 68 69 68 66 65 64 62 63 64 67
57 57 58 59 59 60 59 59 58 57 57 56 56 55 55 54 55 64 63 73 75 72 62 65 69 75 76 78 72 80 82 79 70 67 67 66 68 67 68 65 66 61 66 66 62 63 59
57 57 57 57 58 58 58 58 58 57 57 56 55 55 54 56 65 65 72 76 74 71 44 67 71 83 78 73 76 74 79 78 69 67 67 62 65 66 65 63 66 62 66 67 65 66 62
56 56 57 57 57 57 57 57 57 57 56 56 55 55 54 55 62 69 73 74 72 56 44 62 71 70 70 71 71 75 74 78 75 68 69 66 71 69 67 66 68 67 66 64 64 64 52
55 55 56 56 56 57 57 56 56 56 56 55 55 55 55 66 67 71 71 70 56 48 62 60 64 69 69 66 66 69 68 67 66 59 60 65 65 69 69 65 67 67 64 53 49 49 48
55 55 55 56 56 56 56 56 55 55 55 55 54 54 55 66 73 68 69 64 48 58 60 66 66 67 64 66 64 65 65 63 65 66 63 59 53 64 67 66 64 64 64 53 41 44 52
54 55 55 55 55 56 56 55 55 55 54 54 54 54 55 65 64 65 66 50 55 60 66 64 65 62 61 64 65 64 63 64 64 65 61 58 56 66 65 67 67 60 57 62 51 47 48
54 54 54 55 55 55 55 55 55 54 54 53 58 55 64 70 68 65 59 53 61 65 66 67 59 64 58 62 62 63 62 63 62 64 66 62 54 62 63 67 66 64 65 54 56 41 40
53 53 54 54 54 54 55 55 55 54 54 54 63 60 67 69 70 63 55 60 63 68 67 64 64 60 63 60 63 62 62 62 64 64 67 66 61 57 61 61 61 59 59 57 58 52 46
52 53 53 54 54 54 55 55 54 53 53 53 63 57 65 68 60 63 60 64 58 66 67 66 67 66 64 63 61 61 60 62 64 66 62 63 61 52 58 62 64 64 61 61 51 47 48
51 52 53 53 53 53 54 54 53 53 54 57 61 62 66 64 54 52 60 64 65 65 66 66 65 66 65 62 57 60 60 60 61 63 62 62 57 49 52 58 62 60 61 60 56 52 46
51 52 52 53 53 53 53 54 53 53 55 67 64 54 60 63 66 62 60 61 62 65 66 66 63 65 62 59 60 57 58 58 60 61 49 58 58 55 50 55 60 55 57 60 60 49 51
51 51 52 53 52 52 53 53 53 53 54 65 63 61 66 51 56 62 65 64 62 60 66 67 63 65 63 55 57 56 59 57 59 51 58 61 54 55 55 54 55 56 58 58 57 58 50
51 51 51 50 50 52 52 52 53 53 54 64 62 60 62 62 61 61 57 61 62 62 64 63 63 63 64 58 62 57 60 60 60 58 59 57 52 50 48 51 52 51 57 59 59 60 58
51 51 51 50 51 52 52 51 52 53 56 65 66 65 68 49 59 59 59 62 64 65 59 63 67 63 60 60 62 64 63 63 63 59 55 53 48 48 46 47 48 40 51 58 59 60 59
51 51 50 51 51 53 52 52 52 53 57 73 69 69 62 51 55 59 62 64 64 66 61 60 65 63 58 65 65 64 62 60 59 55 57 46 48 45 43 39 35 57 59 59 59 61 65
51 50 50 52 52 52 52 51 51 52 55 70 68 69 64 42 58 59 61 64 62 61 58 59 58 61 65 61 56 51 49 47 48 52 53 54 49 40 39 44 51 58 56 54 53 58 65
50 50 51 51 50 50 50 51 51 52 54 68 67 67 69 53 53 64 62 62 57 58 56 53 58 62 60 55 51 46 45 50 47 48 51 50 49 50 40 38 36 54 56 59 59 50 62
51 51 50 50 49 49 50 51 51 52 54 66 67 64 70 62 63 64 61 59 63 61 57 55 55 54 58 50 43 47 49 51 48 42 37 42 42 40 41 39 48 58 58 59 46 51 62
49 49 49 49 50 50 50 50 50 51 53 63 64 64 68 63 61 62 64 60 60 63 56 57 57 55 52 47 47 49 44 49 49 52 46 46 42 39 39 36 37 58 57 50 58 61 61
50 50 50 50 50 50 50 50 50 52 54 58 64 63 67 66 61 63 62 63 65 69 64 60 62 59 61 53 48 46 39 37 45 46 51 46 52 51 51 53 58 60 62 64 61 59 61

GFSGBSN_sfc_temp_021.txt.gz
Temp
62 61 63 63 62 62 62 62 61 60 60 59 59 59 60 60 60 59 58 58 58 59 59 59 59 59 63 68 76 83 67 68 81 82 84 83 80 80 75 78 80 75 78 80 82 82 83
61 61 61 62 62 62 62 62 61 60 60 59 59 59 59 59 59 58 58 58 58 58 59 59 59 57 64 65 92 91 87 84 87 86 86 86 83 85 80 78 77 80 79 79 81 81 80
61 62 61 61 61 61 61 61 60 60 60 59 59 59 58 59 58 58 58 58 57 58 58 58 58 65 65 74 93 93 90 89 91 88 85 88 88 82 81 75 81 79 72 77 78 79 78
60 61 61 61 60 60 60 60 60 60 60 59 59 58 58 58 57 57 57 57 57 58 58 57 58 66 67 90 95 90 91 88 91 90 89 89 88 82 79 81 77 73 73 66 76 79 79
60 60 61 60 60 60 59 60 60 60 59 59 59 58 57 57 56 56 57 57 57 57 57 58 63 65 71 80 85 92 92 86 86 86 87 86 84 77 77 69 69 69 62 66 70 80 78
60 60 60 60 60 60 60 60 59 59 59 58 58 58 57 57 56 56 56 57 57 56 61 69 70 63 76 80 87 90 93 89 83 80 78 78 76 71 71 70 57 62 65 70 68 75 77
59 59 60 60 60 60 60 60 59 58 58 58 58 58 57 57 56 55 57 66 65 64 67 71 75 75 80 87 91 88 90 85 82 79 71 73 66 62 69 72 73 72 69 69 73 75 74
59 59 59 60 60 60 61 60 59 58 58 58 58 57 57 57 56 55 61 69 75 75 68 75 77 78 82 84 78 85 92 78 76 68 73 69 64 72 76 74 71 71 68 67 71 74 72
58 58 58 59 60 60 60 60 59 57 58 57 57 57 57 56 55 57 67 73 83 80 68 75 79 78 81 82 78 81 87 83 74 69 69 64 68 73 72 71 69 69 67 66 67 72 74
57 57 57 58 59 59 59 59 59 58 57 57 57 56 55 54 55 71 69 78 81 77 62 68 72 78 81 82 75 86 88 82 74 69 70 60 72 71 70 68 71 64 71 71 68 66 60
56 57 57 57 58 57 58 58 58 58 57 57 56 56 54 56 68 69 77 82 81 73 44 72 75 88 84 77 80 78 87 82 72 70 70 66 70 71 68 68 72 62 72 71 70 68 65
55 56 57 57 57 57 57 57 57 57 57 56 56 55 54 57 64 74 79 78 74 54 46 65 75 73 72 76 77 82 80 84 82 73 74 60 77 75 73 72 73 73 69 69 70 68 54
54 55 56 56 56 56 57 56 56 56 56 56 55 55 57 68 70 77 76 71 55 48 69 64 67 72 71 69 72 74 71 70 67 60 60 69 70 73 75 68 72 72 66 53 51 51 50
52 54 55 56 56 56 56 56 56 56 56 55 55 54 56 69 76 73 72 63 48 62 64 73 72 71 66 71 71 71 70 68 73 71 62 59 55 69 74 71 67 68 67 55 44 47 53
51 52 54 55 55 56 56 56 55 55 55 55 54 57 59 64 67 69 66 50 55 66 71 68 69 64 65 69 69 69 68 68 72 73 62 61 58 71 71 73 73 66 60 69 57 56 51
51 51 53 54 54 55 55 55 55 55 54 54 62 57 64 70 68 66 61 53 64 72 73 72 62 67 61 65 64 66 66 72 69 71 74 68 58 68 68 72 71 68 72 57 59 44 43
51 50 52 53 54 54 55 55 55 54 54 54 64 59 74 73 69 64 55 60 69 74 74 69 67 65 67 65 67 66 67 69 72 71 74 72 65 62 66 64 65 64 62 63 63 58 47
51 50 50 53 54 54 54 55 54 54 54 55 62 55 69 72 60 63 59 67 67 72 74 71 71 71 67 68 65 66 65 70 75 74 67 71 66 56 62 69 71 70 66 65 52 51 53
50 50 50 53 53 53 54 54 53 53 55 63 60 62 67 70 53 55 66 68 71 70 70 69 68 72 73 68 62 67 68 65 68 69 68 69 62 52 56 63 68 64 67 67 65 57 52
49 48 51 53 53 53 53 53 53 53 55 67 65 55 59 63 69 63 62 64 64 73 71 74 72 73 69 66 69 64 65 64 66 69 52 61 64 58 51 58 65 59 64 66 62 52 53
48 48 51 52 53 53 53 53 53 53 55 64 68 63 66 52 60 64 66 66 64 63 71 73 68 69 68 62 64 63 67 62 64 54 64 66 57 62 64 63 63 63 63 64 62 62 55
48 50 51 51 52 52 52 51 52 53 55 60 64 66 69 64 65 64 60 64 65 68 68 66 67 70 71 65 66 63 66 65 63 64 64 66 56 56 53 62 60 58 63 64 65 65 65
50 50 51 51 52 52 52 50 52 53 55 62 67 73 70 58 63 61 63 66 67 71 66 73 72 70 67 68 70 71 72 71 71 65 62 60 54 51 49 54 54 44 54 61 65 67 66
50 50 51 51 52 51 50 50 52 54 55 71 70 71 62 55 62 62 66 68 69 70 66 69 73 69 66 73 72 71 69 67 66 63 67 53 54 51 47 41 34 61 67 66 63 67 71
50 50 51 51 51 51 50 49 52 53 54 66 73 71 68 47 63 65 66 67 70 69 68 66 65 70 73 70 60 54 53 51 55 60 61 63 55 46 40 47 55 60 65 60 58 60 69
50 50 51 51 50 50 50 51 52 52 53 58 68 74 73 60 60 70 67 69 62 62 60 58 66 70 67 63 56 50 48 54 51 54 59 57 55 51 46 38 35 56 62 65 65 53 67
49 50 50 50 50 50 50 51 51 52 53 57 70 70 75 66 71 71 66 65 71 67 63 59 59 59 65 55 44 51 51 59 50 46 40 46 46 42 45 41 50 63 64 65 49 52 65
50 50 49 49 50 51 51 50 51 51 52 56 70 72 76 70 68 70 74 69 70 70 59 62 60 60 58 50 49 54 49 54 54 59 51 49 46 42 46 37 37 65 63 53 60 66 67
49 49 49 49 49 50 50 50 51 51 51 54 65 74 78 72 65 70 68 69 72 77 73 65 68 64 65 59 54 55 44 40 53 47 61 50 57 54 55 55 64 66 65 69 68 64 65

GFSGBSN_sfc_temp_024.txt.gz
Temp
62 62 62 61 62 62 63 63 62 61 61 60 60 60 60 60 60 60 58 58 58 59 60 59 60 59 61 67 73 82 69 70 80 80 80 82 78 77 72 77 79 75 78 81 81 80 69
61 61 61 61 61 62 63 62 61 61 60 60 60 59 59 59 60 59 58 58 58 58 59 59 59 58 61 64 93 90 84 80 85 83 83 85 81 84 78 77 76 79 78 79 80 77 80
61 60 60 61 60 61 62 61 61 60 60 60 60 59 59 59 59 59 58 58 58 58 58 59 59 62 65 71 92 93 89 87 89 86 83 88 87 81 81 75 82 78 72 75 77 78 77
60 60 60 60 60 60 60 60 60 60 60 60 60 59 58 58 58 58 58 58 57 58 58 58 58 64 64 89 93 91 91 89 91 90 87 89 88 81 77 80 76 71 71 62 74 76 76
60 60 60 60 60 59 59 60 60 60 60 60 60 59 58 57 58 57 57 57 58 58 58 58 59 65 69 81 84 91 92 86 88 87 87 89 83 76 76 67 65 67 57 62 68 78 75
60 60 60 60 59 59 60 59 59 59 59 59 59 59 58 57 57 56 56 57 58 57 60 69 71 64 74 78 88 91 94 90 83 81 78 77 74 69 70 66 52 56 60 64 65 73 74
59 59 59 59 59 60 60 60 59 58 58 59 59 58 58 57 57 56 56 62 61 60 65 69 74 73 81 88 91 87 91 85 83 77 68 74 65 62 63 67 70 67 65 65 71 76 72
58 58 59 59 59 60 60 60 59 58 58 58 58 58 58 57 57 56 60 65 75 75 65 74 77 78 83 86 77 84 91 77 74 65 67 68 60 69 72 71 70 69 65 65 71 74 72
57 57 58 58 59 59 60 60 59 58 58 58 58 58 58 57 56 56 63 69 83 79 65 74 79 78 80 84 77 80 85 81 71 67 66 61 61 67 71 70 67 67 65 63 65 71 73
56 56 57 58 58 58 59 59 59 58 57 57 57 57 56 55 53 67 66 76 76 76 58 67 72 78 82 82 74 88 89 76 70 66 60 60 70 66 69 66 70 61 69 68 65 64 56
55 55 55 56 57 57 57 57 58 58 57 57 56 56 54 55 63 69 77 83 80 72 42 72 74 89 84 76 78 79 89 80 69 68 66 58 66 67 65 64 70 60 69 67 68 65 58
54 55 55 55 56 56 56 56 56 56 57 56 56 56 54 56 60 68 76 77 73 52 42 65 75 72 72 75 76 81 79 84 78 68 71 69 75 70 66 72 72 72 67 68 68 64 43
54 54 54 55 55 56 56 56 56 56 56 56 56 55 56 68 66 76 73 69 52 45 69 64 67 72 70 69 71 74 71 69 65 59 58 65 67 75 73 69 73 71 64 51 42 41 44
53 53 54 54 55 56 56 56 56 55 55 56 55 54 56 66 72 72 69 57 45 59 62 74 71 71 65 70 69 71 69 64 71 69 63 57 50 69 74 70 56 58 64 51 33 32 49
52 52 53 53 54 55 55 56 55 55 55 55 54 57 58 62 65 68 59 46 52 62 70 69 70 64 64 70 69 68 67 66 70 72 54 50 53 67 73 75 72 65 59 68 53 54 48
51 52 52 52 52 55 55 55 55 55 54 54 59 56 58 66 67 62 53 50 60 71 74 72 62 66 60 65 63 65 65 71 70 73 67 49 40 60 70 73 72 67 71 55 57 41 40
51 51 52 51 51 54 54 55 55 54 54 55 61 55 68 69 65 57 49 55 63 74 76 69 67 65 67 65 66 64 65 72 73 72 74 69 59 62 67 64 63 63 60 63 62 56 43
50 49 51 51 50 52 54 54 54 54 54 53 59 51 68 68 54 58 54 62 64 70 76 71 72 71 67 68 65 65 64 70 77 75 66 71 64 53 61 71 73 69 63 64 48 48 51
49 50 51 51 50 51 53 54 54 54 54 55 56 59 66 66 49 50 60 63 68 68 71 69 68 71 73 68 62 67 69 69 71 71 66 69 60 48 55 64 69 63 66 66 64 55 47
49 50 50 51 51 49 53 54 54 53 54 58 60 49 52 57 65 58 57 60 61 71 72 73 71 73 70 67 70 65 66 65 68 70 54 64 63 57 47 56 63 59 63 66 63 46 47
49 50 50 50 51 49 53 54 54 53 53 53 60 56 59 47 53 60 63 63 61 63 71 74 69 69 67 61 65 63 68 63 65 56 64 65 55 60 63 65 64 62 62 64 61 61 51
49 49 49 49 49 50 53 53 53 53 53 50 56 60 63 60 59 58 57 60 63 67 68 66 66 70 70 64 66 62 67 64 62 63 64 66 54 56 52 61 62 58 62 63 63 64 63
49 49 49 49 50 51 53 53 53 52 52 51 62 68 64 56 58 57 58 63 65 69 71 74 71 69 66 69 72 71 71 72 71 63 61 60 52 48 45 55 52 42 53 59 62 66 64
48 49 49 49 51 52 53 53 52 52 52 61 64 68 56 52 57 59 63 66 67 69 66 72 74 69 69 75 73 71 70 69 68 65 69 53 51 48 43 40 35 58 69 67 63 65 68
49 49 50 50 51 52 52 51 51 49 51 58 62 57 56 45 61 63 65 67 69 70 69 69 68 72 74 70 58 52 50 49 56 63 63 63 52 44 38 43 52 58 64 61 59 59 66
49 49 50 50 50 51 51 51 50 50 49 54 57 56 57 55 58 69 66 68 62 60 60 60 70 74 72 62 53 48 46 53 51 54 62 59 54 48 43 38 35 55 63 67 66 49 65
49 50 50 50 50 50 50 50 49 49 50 51 56 57 56 56 69 69 65 63 70 63 59 60 60 60 66 51 42 49 49 61 48 45 39 44 45 39 42 39 46 64 65 66 46 49 64
49 49 49 50 50 50 50 49 49 49 51 51 52 56 55 54 69 73 75 69 69 67 56 61 59 61 58 49 48 52 46 53 53 58 48 45 43 39 44 35 35 66 63 51 59 64 64
49 49 49 49 50 50 50 49 50 51 52 53 49 58 60 59 64 69 69 71 73 75 65 63 65 63 62 58 53 54 41 40 49 45 64 49 55 50 51 48 63 67 64 68 67 64 64

GFSGBSN_sfc_temp_027.txt.gz
Temp
61 62 61 61 61 61 62 62 62 61 61 61 60 60 60 60 60 59 59 59 58 58 58 59 59 59 55 56 63 74 68 69 74 74 72 71 68 67 63 66 67 65 69 74 72 68 62
61 61 60 60 61 61 62 62 61 61 60 60 60 59 59 59 59 59 59 58 57 58 58 58 59 58 52 56 79 73 75 73 76 72 73 73 73 74 69 68 64 71 70 69 70 67 67
61 60 60 60 59 60 61 61 61 61 60 60 60 59 59 59 58 58 58 58 57 57 58 58 59 58 57 59 77 76 79 75 77 77 73 77 78 71 70 65 73 70 63 64 68 69 65
60 60 60 59 59 59 59 60 60 60 60 60 60 59 59 58 57 57 57 57 57 57 58 58 58 55 53 79 74 77 79 79 81 80 79 80 78 71 67 70 68 62 60 54 66 70 69
60 60 60 59 59 59 59 59 59 60 60 60 60 59 58 57 57 57 56 56 56 57 58 58 52 53 57 79 76 82 81 79 81 79 77 85 74 66 66 58 53 55 49 55 61 70 68
59 59 59 59 59 59 59 59 59 59 59 59 59 59 58 57 56 56 55 56 57 56 58 61 62 53 64 71 80 83 83 83 77 74 71 68 63 57 58 53 44 53 54 53 55 63 66
59 59 59 59 59 59 59 60 59 58 59 59 59 59 58 57 57 56 54 52 51 50 54 57 63 64 75 80 84 78 82 78 74 68 57 63 54 50 55 61 62 61 57 55 60 66 63
58 58 58 59 59 59 59 59 59 58 58 58 59 58 58 57 56 57 52 51 63 62 54 65 67 70 77 78 71 77 81 69 66 57 62 57 51 61 65 67 61 62 59 58 62 67 62
57 57 57 58 59 59 59 59 58 58 58 58 58 58 57 57 56 53 51 57 69 65 53 66 71 69 73 76 70 71 76 71 63 59 60 53 58 67 66 60 58 60 54 56 57 59 59
56 56 56 57 57 58 58 58 58 58 57 57 57 57 56 55 51 55 53 64 64 62 44 60 66 71 76 75 67 79 81 70 64 59 56 54 65 64 61 58 63 56 64 61 62 55 46
55 55 55 56 56 56 57 57 57 57 57 57 56 56 55 56 53 54 66 68 66 60 32 64 68 82 77 69 69 72 80 71 61 60 60 55 59 59 57 58 65 57 63 60 60 55 52
55 55 55 55 55 55 56 56 56 56 57 56 56 56 54 54 52 55 62 64 62 45 34 61 69 67 66 68 69 72 72 73 71 62 61 61 67 63 62 66 66 66 62 59 57 51 37
54 54 55 54 54 55 55 56 56 56 56 56 55 55 54 61 54 63 60 57 41 33 62 60 61 66 63 62 65 67 64 60 55 50 50 61 64 64 68 60 64 61 52 39 36 32 34
53 54 54 54 54 54 55 55 55 55 55 55 55 54 55 59 60 60 57 49 36 52 55 67 65 64 59 63 62 64 61 56 61 59 53 50 45 58 64 59 57 56 53 39 30 31 37
53 51 53 53 54 53 54 55 55 55 55 55 54 53 53 56 58 57 52 41 41 54 62 61 63 57 57 63 62 60 58 57 61 62 50 46 48 60 64 65 62 57 48 59 42 42 36
53 51 52 52 53 53 53 55 55 55 54 54 52 51 53 59 58 55 48 44 52 63 67 65 54 59 53 58 57 57 56 62 62 64 60 50 45 55 58 64 65 59 61 46 44 34 32
52 52 51 52 52 52 53 54 55 55 54 54 52 48 57 61 57 50 41 47 55 66 67 63 59 57 59 58 58 55 57 64 65 61 60 53 50 50 57 55 54 55 52 53 52 41 32
50 51 51 51 51 51 51 53 54 55 54 52 51 43 58 61 43 45 43 52 56 62 66 64 63 61 58 61 56 56 56 59 67 66 59 54 50 39 53 63 66 61 56 52 35 40 35
50 50 50 51 51 50 50 51 54 54 54 51 47 50 58 60 41 40 50 53 58 59 60 62 60 62 62 60 52 58 56 61 63 62 57 57 49 34 44 53 59 55 58 58 53 41 37
50 50 50 50 50 50 50 49 53 54 54 53 48 43 49 52 55 49 47 51 51 62 61 65 64 63 60 58 63 55 54 60 62 59 53 58 53 45 35 46 54 50 54 56 52 34 35
49 49 50 49 49 50 50 50 52 54 54 52 48 47 53 43 45 50 52 53 52 53 62 65 61 61 58 52 54 55 56 56 59 54 57 56 46 49 52 55 57 56 55 57 53 50 41
49 49 49 48 50 50 50 49 51 53 53 49 46 50 51 48 51 49 50 51 54 58 60 59 58 61 60 55 57 53 57 55 54 54 54 57 43 44 42 55 54 49 53 54 54 55 52
49 49 49 49 50 50 50 49 49 53 53 47 52 54 56 47 49 47 49 54 55 60 61 66 62 59 56 59 62 59 61 61 60 53 50 49 40 37 35 45 45 35 46 52 53 55 53
48 49 49 49 50 50 51 49 50 53 53 49 54 52 49 43 49 49 55 57 57 59 56 64 64 58 60 64 61 59 58 58 59 56 57 44 42 35 31 33 26 47 59 59 55 55 55
49 49 49 50 49 50 50 49 51 52 53 49 51 51 49 36 52 53 55 57 60 62 59 61 61 64 64 59 46 44 38 42 48 56 53 52 39 34 30 30 41 50 54 52 50 48 55
49 49 48 49 49 49 50 50 52 52 52 50 50 51 51 46 49 59 56 59 53 50 49 53 59 58 62 47 38 37 33 42 41 48 53 52 43 35 30 27 25 43 55 60 58 37 54
48 48 49 49 48 49 50 51 51 51 50 49 48 52 50 48 56 58 56 56 60 52 46 50 53 52 56 36 36 34 35 51 38 37 35 33 33 30 26 25 35 53 58 58 37 39 54
47 47 48 48 48 50 50 51 50 51 50 48 46 51 51 49 52 60 65 59 59 54 45 51 49 48 41 39 37 35 33 39 39 46 40 36 32 28 32 29 29 57 55 45 47 52 55
48 48 49 49 49 50 50 50 50 50 50 50 43 54 55 48 51 59 61 60 65 62 54 52 54 51 50 43 40 38 35 35 37 33 51 37 42 36 40 36 50 55 55 56 56 54 53

GFSGBSN_sfc_temp_030.txt.gz
Temp
61 61 61 61 61 61 61 62 61 60 60 60 60 60 60 60 60 59 58 58 58 58 58 58 59 59 53 53 59 70 68 68 70 71 68 66 63 64 59 61 62 61 66 69 65 64 65
61 60 60 60 60 60 61 61 61 60 60 60 60 59 59 59 59 58 58 57 57 57 57 58 59 58 51 53 74 72 70 70 71 68 68 67 67 69 64 64 60 66 66 66 64 63 64
61 60 60 60 59 59 60 60 60 60 60 60 60 59 59 59 59 58 58 57 56 56 57 58 58 57 52 58 72 69 74 71 71 72 69 72 73 66 64 63 70 66 59 64 61 62 61
60 60 60 60 59 58 58 58 59 60 60 60 60 59 58 58 58 57 56 56 56 56 57 58 58 52 50 72 68 71 73 74 76 74 72 75 74 70 63 66 65 60 57 51 61 63 64
60 60 60 59 59 58 58 58 58 59 59 60 59 59 58 58 57 56 56 56 56 57 57 57 51 50 53 73 72 76 75 74 75 73 73 81 70 62 63 55 51 52 46 50 56 66 65
60 59 59 59 59 59 58 58 58 58 59 59 59 59 58 58 57 56 55 56 56 55 56 59 59 50 61 67 75 78 76 77 74 71 68 65 59 55 54 51 42 49 50 50 53 59 62
58 59 59 59 59 59 59 59 58 58 58 58 59 59 58 58 56 56 53 51 52 51 51 55 58 59 67 74 78 75 77 74 70 66 54 59 52 48 53 56 61 59 56 52 58 63 60
57 58 58 58 59 59 59 59 58 57 58 58 58 58 58 57 56 56 51 49 57 58 51 61 63 64 70 71 66 72 77 67 62 55 56 54 49 57 63 64 58 56 53 52 58 62 59
57 57 57 58 58 59 59 59 58 57 57 58 58 58 58 56 56 52 49 52 63 63 49 59 64 64 67 70 65 67 73 67 60 56 55 51 57 63 62 58 56 54 52 52 54 57 58
56 56 56 57 58 58 58 58 58 57 57 57 57 57 56 55 52 53 50 60 59 60 43 53 61 66 71 71 63 74 74 69 60 56 54 53 60 60 58 56 57 50 60 57 57 51 44
55 56 56 56 56 56 56 57 57 57 57 57 56 56 54 57 51 53 61 61 59 57 27 60 62 76 72 65 66 68 76 68 58 57 56 53 56 55 53 57 60 54 60 57 56 50 46
53 55 55 55 55 55 55 56 56 56 56 56 56 55 54 53 51 52 58 59 58 43 32 56 65 62 62 64 64 66 69 70 67 58 57 57 61 61 59 63 62 63 58 54 51 47 37
53 53 55 55 55 55 55 55 56 56 56 56 56 55 55 58 53 56 60 55 39 36 56 56 57 62 60 58 60 62 60 56 53 47 46 55 57 62 64 57 60 57 49 37 35 32 33
53 53 54 54 55 54 54 55 55 55 55 55 55 54 55 58 56 56 56 49 36 47 50 61 60 60 55 59 59 59 56 52 56 55 47 45 42 56 61 58 52 53 50 36 32 29 37
54 52 54 53 54 54 53 53 54 55 55 54 54 53 52 55 55 58 52 40 39 48 58 57 58 53 52 58 58 56 53 53 57 57 48 44 46 57 59 62 59 53 46 53 40 38 34
53 52 52 52 53 54 54 53 53 54 55 54 51 51 52 56 57 55 46 43 48 58 61 60 51 54 49 54 53 52 52 58 58 60 58 52 44 54 58 62 60 57 60 45 41 33 32
52 52 52 51 52 52 53 53 53 54 54 55 50 47 56 59 54 48 40 43 52 61 60 57 54 53 54 52 54 51 54 59 61 57 59 52 50 48 55 52 52 52 50 50 47 38 33
52 51 51 52 52 52 52 52 53 52 54 52 48 42 55 59 44 43 43 50 52 56 60 58 58 56 54 55 52 53 53 58 61 60 55 55 48 36 50 59 58 55 52 50 34 38 32
51 51 51 51 51 51 52 52 52 52 54 49 45 47 55 57 38 38 46 51 53 54 56 56 56 59 59 54 49 53 53 58 59 60 55 54 45 34 42 51 55 52 55 53 47 38 36
51 51 51 51 51 51 51 51 52 51 53 49 46 40 47 49 52 46 43 45 46 57 55 57 57 58 55 52 55 51 53 57 57 57 52 56 49 43 36 44 49 46 51 52 48 33 35
50 50 50 50 50 51 51 51 51 51 53 49 46 46 47 40 42 47 48 48 45 47 56 58 55 55 53 48 49 52 53 54 56 53 55 54 45 47 49 51 51 50 51 52 49 47 39
50 50 50 50 50 50 51 51 50 49 53 45 43 47 48 44 48 45 46 46 47 51 54 54 53 56 55 52 53 50 54 51 52 53 52 53 43 41 40 49 49 46 50 50 51 50 49
49 49 49 49 50 50 50 50 50 50 49 44 47 52 50 45 46 43 44 48 50 54 56 59 58 56 51 57 59 58 58 57 57 52 48 46 39 35 35 42 42 34 43 49 51 51 51
49 49 49 49 50 50 49 48 49 49 48 49 47 49 46 41 46 45 49 52 51 54 52 59 61 55 58 61 58 57 55 54 54 52 54 42 39 33 30 32 25 45 54 53 49 49 51
49 49 49 49 49 49 49 49 49 49 48 48 49 48 46 35 48 48 50 51 54 56 54 58 59 62 62 55 45 43 37 42 46 50 50 49 37 33 29 29 38 48 52 50 47 44 50
48 49 49 49 49 49 49 49 49 49 49 49 48 49 45 44 45 54 51 54 49 48 51 52 56 58 56 43 37 36 33 40 38 45 50 45 39 34 29 27 25 41 51 56 53 35 52
48 48 49 49 49 49 49 49 49 49 50 49 48 49 46 42 51 56 50 51 56 48 49 49 52 51 52 35 33 33 34 46 36 36 34 32 31 29 23 24 33 47 54 54 38 38 51
48 48 49 49 49 49 49 49 49 49 52 49 47 49 47 45 49 51 58 55 55 54 46 48 47 47 38 37 36 33 31 37 36 42 38 36 31 27 31 25 30 52 52 44 45 48 51
48 48 48 48 48 48 48 49 49 51 51 51 45 50 51 44 47 53 53 54 65 61 52 49 51 50 48 42 39 36 34 33 35 32 46 38 40 34 37 36 48 51 51 52 52 50 49

GFSGBSN_sfc_temp_033.txt.gz
Temp
61 61 61 61 61 60 61 61 61 60 60 60 60 60 60 60 60 59 58 57 57 57 57 58 59 59 52 52 59 69 67 67 66 67 64 64 60 59 54 58 57 57 62 64 65 62 61
61 60 60 60 60 60 61 61 60 59 59 59 59 59 59 59 59 59 58 57 57 57 57 57 58 58 50 52 71 70 68 66 67 65 65 65 64 65 60 59 56 63 61 61 60 62 63
60 60 60 59 59 59 59 59 59 59 59 59 59 59 59 59 59 58 58 57 56 56 57 57 58 56 50 57 68 67 70 66 68 67 65 68 68 64 62 60 64 64 56 60 59 58 59
60 59 60 59 59 58 58 58 58 59 59 59 60 59 58 58 58 57 57 56 56 56 57 57 57 50 50 68 65 68 68 69 72 70 70 72 69 65 62 64 62 58 55 49 57 58 61
59 59 59 59 59 58 58 58 58 58 59 59 59 59 58 57 57 56 56 56 56 57 57 57 49 49 52 70 66 73 71 69 72 70 70 76 67 59 61 53 49 51 45 49 54 61 58
59 59 59 59 59 58 58 58 58 58 58 58 58 58 58 57 57 56 55 55 56 55 55 58 57 49 59 64 71 73 70 72 70 67 65 63 56 52 51 50 41 44 46 44 49 56 57
59 59 59 59 58 59 59 59 58 57 57 58 58 58 58 57 57 55 53 51 52 51 51 54 56 56 62 69 72 70 72 70 66 63 53 56 50 45 49 53 55 53 50 47 53 61 58
58 58 59 58 58 59 59 59 58 57 57 57 58 57 58 57 56 56 52 49 56 55 48 58 59 60 66 68 62 67 74 64 60 54 54 52 46 55 58 59 57 55 51 53 55 59 57
55 56 58 58 58 58 59 59 58 57 57 57 57 57 57 57 56 52 49 54 63 58 47 56 60 59 63 66 60 62 70 64 57 54 53 48 54 60 59 56 54 51 49 50 52 55 53
55 55 55 57 57 57 57 57 58 57 56 56 56 56 55 55 52 53 51 59 59 57 42 50 56 61 66 67 61 70 71 66 56 55 52 51 57 57 54 53 54 47 55 54 53 49 43
55 55 55 55 57 56 56 57 57 57 57 56 56 56 54 56 53 52 59 60 59 55 28 56 58 71 67 63 63 64 71 65 56 55 54 51 53 52 51 55 57 52 55 54 53 48 44
54 55 54 54 55 56 55 56 56 56 56 56 55 56 54 54 51 53 57 58 56 38 30 52 61 58 58 61 61 64 65 66 63 56 53 55 59 57 56 59 58 58 54 51 47 45 35
54 54 54 54 54 54 55 55 55 55 55 56 55 56 54 57 50 55 57 55 40 29 54 52 54 57 56 54 56 58 57 54 51 45 45 51 54 57 60 53 57 55 47 36 35 31 32
54 54 54 54 53 54 55 55 54 55 55 55 55 54 54 58 54 54 57 49 34 44 46 57 57 55 52 55 55 56 53 50 53 51 44 43 41 53 57 54 50 48 48 36 32 29 36
54 54 53 53 54 53 54 55 54 54 55 55 54 52 53 55 57 52 51 39 37 45 55 54 55 50 49 54 55 53 50 50 54 55 47 42 45 53 56 58 58 51 44 50 37 34 33
54 53 53 53 53 53 53 54 54 54 54 54 46 49 51 58 58 51 46 43 46 54 57 54 48 51 45 49 50 50 49 55 55 57 56 50 43 52 55 57 58 54 56 42 39 33 31
53 53 53 52 53 53 53 54 53 53 53 54 47 44 55 57 56 45 39 42 49 59 57 52 50 49 51 49 51 47 51 55 57 54 57 50 48 46 51 50 50 50 47 46 45 36 31
53 53 52 52 53 52 53 53 53 53 53 50 45 38 52 57 43 42 39 46 51 55 56 54 54 52 51 51 49 50 50 56 59 56 52 52 45 35 48 54 56 52 48 47 34 37 31
52 52 52 52 53 52 52 52 53 53 53 46 41 45 53 54 39 38 44 48 52 53 52 52 52 54 54 50 47 50 51 56 56 56 52 52 43 33 42 49 52 48 50 49 44 36 34
52 51 52 52 52 51 51 51 52 53 53 47 42 38 45 47 50 45 42 43 45 54 52 53 52 54 51 50 52 49 50 54 55 56 52 54 46 42 36 43 47 43 48 48 46 32 34
51 51 51 51 51 50 50 51 52 52 52 46 42 41 48 39 41 45 46 46 44 46 52 53 49 51 48 44 46 46 50 52 54 52 52 53 44 44 46 48 49 49 49 48 46 44 38
51 50 50 51 51 51 51 51 52 52 52 42 39 41 47 43 47 44 45 43 44 48 48 48 49 53 53 46 49 48 51 49 50 51 49 50 41 41 39 46 46 44 48 48 47 47 46
51 50 49 50 50 50 51 51 51 52 50 40 44 47 44 45 45 42 43 44 46 50 51 55 55 53 48 52 55 55 55 56 56 52 46 45 38 36 35 39 39 34 41 46 48 49 49
50 49 49 50 50 51 50 51 51 51 50 46 45 46 42 39 43 43 46 48 48 50 48 54 56 51 55 57 55 55 52 52 51 49 50 40 37 33 30 32 25 44 50 50 46 46 47
49 49 49 50 50 50 50 50 50 50 51 43 46 45 43 36 45 46 45 46 50 53 51 54 56 60 58 52 44 42 36 40 43 47 46 46 36 31 30 30 37 45 47 47 45 42 48
48 48 49 49 50 50 50 50 50 50 50 45 46 48 44 40 42 51 47 48 44 45 46 49 58 55 53 41 35 35 34 39 37 42 47 43 38 36 27 27 27 41 48 53 51 35 50
48 48 49 49 49 50 49 49 49 50 50 46 46 51 46 39 45 50 46 46 52 48 45 47 50 49 51 33 31 32 32 44 36 36 34 32 30 30 22 25 33 45 51 53 38 39 48
47 47 48 49 49 48 49 49 49 49 49 46 45 50 46 41 45 50 49 48 52 52 44 47 49 46 36 38 36 32 31 37 36 40 38 37 31 27 26 24 30 49 49 43 45 45 49
47 48 48 48 48 48 48 49 49 49 49 47 44 50 50 44 44 50 50 52 50 58 52 46 51 49 47 41 36 36 32 30 35 32 43 38 38 35 37 36 46 48 49 49 49 49 48

GFSGBSN_sfc_temp_036.txt.gz
Temp
60 61 60 60 60 60 61 61 60 59 59 59 60 60 60 61 60 59 58 58 57 57 57 58 58 59 53 52 58 65 66 66 64 65 63 62 58 57 52 54 54 53 59 61 61 60 59
60 60 60 59 60 60 60 60 59 59 59 59 59 59 60 60 60 59 58 57 57 57 57 57 58 58 49 50 68 67 64 65 64 61 62 62 62 63 57 55 56 60 59 58 59 59 61
59 59 59 59 59 59 59 59 58 58 58 59 59 59 59 59 59 59 58 57 56 56 57 57 58 55 49 56 66 63 68 64 66 64 62 65 65 60 59 56 62 60 54 58 57 59 59
60 59 59 59 59 59 58 59 58 58 58 58 59 59 58 58 58 58 57 56 56 57 57 57 57 49 49 66 62 65 64 66 68 67 66 69 66 62 57 61 59 55 54 50 56 57 57
59 60 59 59 58 58 59 58 58 58 58 58 58 58 57 57 57 57 56 56 56 57 57 57 50 47 52 68 64 70 69 68 69 67 67 74 64 57 57 50 49 49 43 48 52 58 57
59 59 60 59 58 58 58 59 58 57 57 57 57 57 57 57 57 56 55 56 56 55 55 57 56 48 58 61 68 70 66 69 66 64 62 60 54 50 49 49 41 42 43 41 44 53 54
58 58 58 59 59 58 58 58 59 57 57 57 57 57 57 57 57 56 53 52 52 50 51 55 54 54 59 66 68 66 68 67 64 61 51 54 49 44 48 51 54 51 47 46 48 56 55
57 57 57 56 59 59 59 58 57 57 57 57 57 57 57 57 57 56 52 49 56 54 47 56 57 57 62 64 59 64 70 62 58 52 52 51 45 53 56 54 54 51 48 48 53 55 53
56 56 57 57 56 59 59 58 57 57 57 57 56 56 56 56 55 53 49 53 61 59 46 55 57 56 60 63 58 60 67 61 55 51 51 47 51 57 57 53 52 49 47 48 48 52 50
55 55 55 56 56 56 58 58 58 57 57 56 56 55 55 55 52 50 50 58 60 57 41 49 53 58 61 62 58 67 68 63 54 53 51 49 55 54 51 51 53 44 54 51 50 46 42
55 55 55 55 56 55 55 57 57 56 56 56 55 55 55 55 53 49 57 59 58 55 30 54 54 68 62 61 61 62 68 63 55 53 52 50 50 51 49 52 55 51 53 51 50 45 43
54 55 55 55 55 55 55 55 56 56 56 56 56 55 55 53 52 52 57 58 56 41 30 50 58 55 55 58 58 59 62 64 60 54 50 52 55 54 54 57 56 56 51 49 46 43 35
54 54 54 54 54 55 55 54 55 55 55 56 55 55 54 57 52 53 57 53 41 31 52 50 51 54 53 52 54 56 54 52 49 44 43 49 51 54 57 51 53 50 45 35 34 31 32
54 54 54 54 54 54 54 54 54 55 55 55 55 54 54 57 57 52 55 47 33 43 45 54 53 52 50 53 53 53 51 48 49 49 43 42 40 52 56 54 50 47 46 34 31 28 35
54 54 54 54 54 54 54 54 53 55 54 54 54 47 50 55 57 55 49 37 37 43 51 50 51 47 47 51 51 50 49 48 52 52 46 40 43 51 53 55 54 48 42 48 36 33 32
54 54 53 53 53 53 53 53 53 54 54 54 47 46 46 57 57 53 42 41 47 51 55 51 45 49 43 47 48 48 46 52 52 55 54 49 42 49 52 54 54 51 53 40 37 32 30
53 53 53 53 53 53 53 53 53 53 54 54 46 41 48 55 54 45 35 40 49 56 55 49 46 46 48 46 48 44 47 52 55 53 54 49 47 45 49 48 48 47 44 43 43 35 31
52 53 53 53 52 53 53 53 53 52 53 50 44 34 51 55 42 45 41 44 50 53 55 52 50 49 48 48 46 47 48 53 56 54 50 51 45 35 46 51 53 50 47 44 33 36 30
52 52 52 53 52 52 52 52 53 52 53 46 40 41 52 53 37 39 46 46 48 51 51 50 48 51 51 47 44 48 49 55 54 54 50 50 41 33 40 46 49 46 48 46 42 35 33
52 52 52 52 51 52 52 52 52 51 53 48 41 34 43 45 50 43 42 42 43 52 51 52 49 51 49 47 48 47 49 53 53 54 52 53 43 41 37 42 46 42 46 45 43 32 34
51 51 52 51 51 51 52 52 52 51 52 47 41 37 45 36 39 43 45 44 41 44 52 51 46 48 47 43 44 44 47 49 51 50 50 51 42 43 44 47 47 46 47 45 43 42 38
51 51 52 51 51 51 52 52 51 51 52 43 37 38 43 40 44 42 43 42 42 45 47 46 45 48 48 44 47 45 48 47 48 49 48 47 41 40 38 43 43 41 45 44 44 43 43
51 51 51 51 50 50 52 52 51 51 51 41 42 43 43 43 42 39 40 43 44 48 51 52 51 50 45 52 56 54 54 52 49 47 44 43 38 36 35 38 40 34 40 45 44 45 46
50 51 51 50 50 50 51 50 50 50 51 41 43 44 40 37 41 41 43 46 46 48 46 52 52 49 52 56 55 53 50 48 49 47 48 38 37 34 29 31 25 44 46 47 45 45 46
50 51 51 50 50 50 50 50 50 52 52 42 44 43 41 34 42 44 44 44 48 50 48 50 54 56 56 54 45 41 36 38 40 44 43 44 36 32 31 29 36 43 45 44 44 44 47
50 51 50 50 49 49 49 49 50 51 51 45 43 47 43 38 38 47 46 46 42 43 43 46 56 55 53 45 36 35 34 38 36 40 44 42 37 36 27 27 26 40 47 50 49 36 48
50 50 50 49 49 49 49 50 50 51 51 45 42 44 43 36 44 45 44 43 48 45 39 44 50 47 50 30 30 31 35 43 35 37 35 32 30 30 22 25 33 44 48 50 37 39 47
50 49 48 48 48 49 50 50 50 51 50 45 41 46 43 39 42 47 49 45 48 48 41 44 47 44 36 37 34 33 28 36 35 40 38 37 32 27 26 24 30 48 47 42 44 43 46
48 48 48 48 48 48 49 50 50 50 50 47 40 47 48 43 44 49 48 51 49 52 50 46 47 45 45 40 34 34 30 28 35 33 42 38 40 36 38 37 46 47 46 49 47 47 47